Regional Weather Roundup
Issued by NWS

Home | Current Version | Previous Version | Text Only | Print | Product List | Glossary Off
Versions: 1 2 3 4 5 6 7 8 9 10 11 12 13 14 15 16 17 18 19 20 21 22 23 24 25 26 27

000
ASUS45 KBOU 241606
RWRCO

WEATHER ROUNDUP FOR COLORADO
NATIONAL WEATHER SERVICE DENVER/BOULDER CO
1000 AM MDT THU APR 24 2014

NOTE: "FAIR" INDICATES FEW OR NO CLOUDS BELOW 12000 FEET WITH NO
SIGNIFICANT WEATHER AND/OR OBSTRUCTIONS TO VISIBILITY.

COZ001>005-013-030-031-241700-
...NORTHWEST COLORADO...

CITY           SKY/WX    TMP DP  RH WIND       PRES   REMARKS
CRAIG          MOSUNNY   41  20  43 NE6       30.13F
HAYDEN         MOSUNNY   39  16  38 S5        30.16F
MEEKER         MOSUNNY   42  15  33 CALM      30.13F
MOUNT WERNER   MOSUNNY   25  10  54 W10       30.16R WCI  15
STEAMBOAT SPGS MOSUNNY   39  12  32 CALM      30.13F
WALDEN         SUNNY     34  10  37 S12G21    30.09F WCI  25
$$

COZ006>008-011-241700-
...WEST CENTRAL VALLEYS...

CITY           SKY/WX    TMP DP  RH WIND       PRES   REMARKS
GRAND JUNCTION SUNNY     48  13  24 SE9       30.15F
MONTROSE       MOSUNNY   47   9  21 CALM      30.19S
EAGLE          SUNNY     39  12  33 CALM      30.18F
RIFLE          SUNNY     44  15  31 CALM      30.16F
DELTA          NOT AVBL
NUCLA          NOT AVBL
$$

COZ017>023-064>068-241700-
...SOUTHWEST COLORADO...

CITY           SKY/WX    TMP DP  RH WIND       PRES   REMARKS
DURANGO        SUNNY     44  11  26 SE8       30.16R
CORTEZ         SUNNY     48  11  22 VRB3      30.16R
PAGOSA SPRINGS SUNNY     43   9  25 CALM      30.17S
TELLURIDE      SUNNY     39   3  22 CALM      30.18S
WOLF CREEK PAS SUNNY     27   7  43 S18       30.22R WCI  13
$$

COZ009-010-012-014-032>034-037-058>063-241700-
...CENTRAL COLORADO...

CITY           SKY/WX    TMP DP  RH WIND       PRES   REMARKS
ASPEN          MOSUNNY   39   9  29 CALM      30.15S
BUENA VISTA    SUNNY     46   2  16 N7        30.08S
COPPER MTN     SUNNY     25  -4  28 W22       30.16R WCI  10
BERTHOUD PASS  FAIR      12   3  67 N31G41    30.08R WCI -10
COTTONWOOD PAS SUNNY     41  -9  11 SE6       30.12R
GUNNISON       SUNNY     39   9  28 E6        30.19F
KREMMLING      SUNNY     41   7  24 SW10      30.16S
LEADVILLE      SUNNY     30   4  33 N7        30.13F WCI  23
MONARCH PASS   SUNNY     19   5  53 W40       30.24R WCI  -2
SALIDA         SUNNY     49   3  15 S15G22    30.15S
SUNLIGHT       SUNNY     28  12  50 CALM      30.20S
WILKERSON PASS SUNNY     30   1  29 SW7       30.13R WCI  23
$$

COZ069>075-241700-
...SAN LUIS VALLEY/SANGRE DE CRISTO MOUNTAINS...

CITY           SKY/WX    TMP DP  RH WIND       PRES   REMARKS
ALAMOSA        SUNNY     43  10  26 SE5       30.15R
LA VETA PASS   SUNNY     34  10  37 SW17G32   30.10S WCI  23
SAGUACHE       SUNNY     43   7  22 W9G16     30.15F
$$

COZ035-036-038>040-241700-
...NORTHERN COLORADO FRONT RANGE...

CITY           SKY/WX    TMP DP  RH WIND       PRES   REMARKS
DENVER INTL AP MOSUNNY   46  22  38 S9        30.02F
DMNS CITY PARK   N/A     49  22  35 S10       30.01S
AURORA         MOSUNNY   46  23  39 S9        30.03F
FRONT RANGE AP MOSUNNY   48  21  34 S6        30.03F
ERIE MUNI ARPT SUNNY     49  27  41 SE9       30.00F
BOULDER MUN AP SUNNY     52  21  30 E5        29.98F
CENTENNIAL     MOSUNNY   44  22  41 SE10      30.02F
BROOMFIELD     NOT AVBL
FORT COLLINS   SUNNY     48  19  32 S7        30.02F
LONGMONT       NOT AVBL
$$

COZ041-046-047-076>085-087-088-241700-
...PIKES PEAK/PALMER DIVIDE AND SOUTHERN FOOTHILLS...

CITY           SKY/WX    TMP DP  RH WIND       PRES   REMARKS
COLO. SPRINGS  MOSUNNY   46  27  47 S10G16    30.06S
A. F. ACADEMY  SUNNY     44  29  56 S6        30.04F
ELLICOTT       NOT AVBL
FALCON         SUNNY     44  29  55 SW12G17   30.06F
FORT CARSON    SUNNY     50  27  40 S13       30.03F
LIMON          SUNNY     49  20  31 N13       30.04S
MONUMENT HILL  SUNNY     37  25  60 SE7       30.04S
TRINIDAD       SUNNY     49  25  39 S7        30.07F
$$

COZ042>045-048>051-090-091-241700-
...NORTHEAST COLORADO...

CITY           SKY/WX    TMP DP  RH WIND       PRES   REMARKS
GREELEY ARPT   SUNNY    N/A N/A N/A SW5       30.01F
AKRON          SUNNY     52  18  26 NW22      29.99S
BURLINGTON     SUNNY     55  15  20 N23G29    30.00R
WRAY           SUNNY     58  19  21 NW18G24   29.98R
STERLING       NOT AVBL
HOLYOKE        NOT AVBL
FORT MORGAN    NOT AVBL
$$

COZ086-089-092>099-241700-
...SOUTHEAST COLORADO...

CITY           SKY/WX    TMP DP  RH WIND       PRES   REMARKS
PUEBLO         SUNNY     52  25  35 VRB5      30.05S
LA JUNTA       SUNNY     53  22  29 NW10      30.05S
LAMAR          SUNNY     57  25  29 N15       30.01R
SPRINGFIELD      N/A     53  30  41 NW22      30.03R
$$



USA.gov is the U.S. government's official web portal to all federal, state and local government web resources and services.